This is the latest recevied weather packets stored in our database for station/object N9ALD. If no packets are shown the sender has not sent any weather packets the latest 10 day(s).
| Time | Temp. | Humidity | Pressure | Rain* | Wind** | Luminosity | Snow |
|---|---|---|---|---|---|---|---|
| 1777569560 | 13.33° C | 50% | 1014.3 hPa | 0 mm | - | 212 W/m² | - |
| 1777569256 | 13.33° C | 47% | 1014.5 hPa | 0 mm | - | 227 W/m² | - |
| 1777568953 | 13.89° C | 50% | 1014.4 hPa | 0 mm | - | 818 W/m² | - |
| 1777568649 | 13.33° C | 49% | 1014.3 hPa | 0 mm | - | 805 W/m² | - |
| 1777568347 | 13.33° C | 56% | 1014.4 hPa | 0 mm | - | 756 W/m² | - |
| 1777568043 | 13.33° C | 49% | 1014.1 hPa | 0 mm | - | 750 W/m² | - |
| 1777567740 | 13.33° C | 55% | 1014.5 hPa | 0 mm | - | 767 W/m² | - |
| 1777567436 | 13.33° C | 49% | 1014.2 hPa | 0 mm | - | 742 W/m² | - |
| 1777567135 | 13.33° C | 46% | 1014.2 hPa | 0 mm | - | 732 W/m² | - |
| 1777566832 | 13.89° C | 49% | 1014.2 hPa | 0 mm | - | 727 W/m² | - |
| 1777566530 | 13.33° C | 53% | 1014.3 hPa | 0 mm | - | 716 W/m² | - |
| 1777566227 | 13.33° C | 55% | 1014.5 hPa | 0 mm | - | 717 W/m² | - |
| 1777565924 | 13.33° C | 55% | 1014.5 hPa | 0 mm | - | 719 W/m² | - |
| 1777565619 | 12.78° C | 51% | 1014.4 hPa | 0 mm | - | 708 W/m² | - |
| 1777565316 | 12.78° C | 53% | 1014.6 hPa | 0 mm | - | 695 W/m² | - |
| 1777565012 | 12.78° C | 58% | 1014.5 hPa | 0 mm | - | 684 W/m² | - |
| 1777564708 | 12.78° C | 61% | 1014.6 hPa | 0 mm | - | 693 W/m² | - |
| 1777564403 | 12.78° C | 56% | 1014.8 hPa | 0 mm | - | 675 W/m² | - |
| 1777564100 | 13.33° C | 47% | 1014.9 hPa | 0 mm | - | 663 W/m² | - |
| 1777563796 | 12.78° C | 57% | 1014.9 hPa | 0 mm | - | 658 W/m² | - |
| 1777563492 | 12.78° C | 58% | 1014.8 hPa | 0 mm | - | 656 W/m² | - |
| 1777563191 | 12.78° C | 57% | 1014.9 hPa | 0 mm | - | 643 W/m² | - |
| 1777562888 | 12.78° C | 54% | 1014.8 hPa | 0 mm | - | 629 W/m² | - |
| 1777562584 | 12.22° C | 55% | 1014.8 hPa | 0 mm | - | 620 W/m² | - |
| 1777562283 | 12.22° C | 57% | 1014.8 hPa | 0 mm | - | 610 W/m² | - |
* Rain latest hour (hover to see other rain measurements)
** Current wind speed in m/s (hover to see current wind gust speed)